Theta_e
276 276 276 276 275 275 275 276 277 276 276 276 277 275 275 276 277 279 284 286 292 292
275 274 274 275 274 275 276 276 276 276 275 275 275 275 275 277 278 279 280 283 288 291
274 274 274 274 273 274 275 275 275 275 274 274 274 274 274 274 275 276 279 284 285 291
273 273 273 273 273 273 274 274 274 274 274 274 273 274 274 273 274 276 277 279 282 286
272 272 271 271 272 273 273 273 273 273 272 272 272 273 272 272 274 274 275 278 281 281
271 270 270 271 272 272 272 272 271 271 270 270 271 271 272 272 273 274 275 277 280 283
269 270 270 270 271 271 271 270 269 269 269 270 270 270 271 272 272 273 275 278 279 281
269 270 270 270 270 269 269 268 268 268 268 269 269 271 271 272 272 273 275 277 279 281
269 269 268 268 268 267 267 267 266 267 268 268 270 272 274 275 274 274 275 276 278 280
267 266 266 266 265 265 265 266 266 267 267 267 269 273 275 275 274 274 275 276 278 279
265 264 264 263 263 263 265 265 265 265 266 267 270 274 276 276 275 274 275 275 278 279
264 262 262 261 262 264 263 263 264 266 266 267 268 274 277 277 274 273 274 275 277 279
262 260 260 261 263 263 262 264 264 264 266 268 269 275 278 278 275 272 273 275 277 280
260 259 261 262 262 262 262 263 262 264 266 268 269 271 276 279 276 274 273 274 276 281
Wind_Speed
7 7 8 9 11 11 12 12 16 15 16 17 17 16 18 17 16 18 15 17 17 10
7 8 11 13 12 12 14 14 17 17 18 18 19 18 20 13 15 14 15 17 18 15
10 9 12 12 15 16 16 17 18 18 19 19 19 18 19 16 15 17 14 13 15 17
10 11 12 13 14 15 17 18 19 19 20 20 19 19 18 16 19 18 16 17 17 21
11 11 12 13 15 16 18 19 19 19 20 20 20 18 18 19 17 18 17 17 18 19
12 11 13 14 16 17 18 19 20 19 20 20 19 19 18 20 18 18 18 16 17 17
12 13 14 16 17 18 18 20 20 19 20 20 19 19 19 18 19 18 19 16 16 18
13 14 15 17 18 18 18 18 20 20 19 19 17 14 17 17 18 18 19 17 16 16
14 15 16 17 19 19 19 19 19 19 20 19 14 24 29 25 17 18 18 18 15 16
13 15 16 17 19 19 20 19 19 20 19 20 19 30 30 30 17 16 16 17 16 14
14 15 16 17 18 19 17 19 19 20 20 20 17 31 31 29 18 16 17 19 18 17
15 16 17 17 19 18 18 18 18 19 20 20 20 32 32 24 13 14 16 17 18 16
14 15 16 17 18 17 16 17 16 20 18 22 20 28 30 20 9 12 11 14 17 25
14 15 16 16 15 16 16 16 17 18 18 18 19 20 32 35 9 10 10 10 12 12
Wind_Direction
270 280 285 289 295 289 289 290 292 291 287 284 282 290 282 275 275 271 276 279 261 244
274 290 293 289 289 289 283 287 290 289 288 284 280 280 279 271 269 272 277 273 283 245
296 292 289 288 289 287 287 290 290 290 288 282 277 276 275 270 269 270 276 279 271 264
298 293 294 288 290 291 291 292 292 290 287 282 281 276 274 274 274 265 269 267 267 277
298 293 291 290 292 296 294 294 292 290 287 284 283 275 271 271 270 270 266 264 265 270
292 298 298 299 301 299 296 297 294 289 286 284 280 276 271 268 265 263 264 260 270 263
311 316 313 307 304 304 301 297 294 289 286 284 281 277 275 272 270 266 269 256 262 262
319 314 309 309 307 304 301 297 294 292 287 283 279 275 271 265 261 261 266 260 255 262
318 317 314 312 309 306 302 301 296 289 287 283 277 277 278 276 268 262 260 268 260 261
316 315 316 312 309 305 304 300 300 298 295 290 285 284 281 275 269 266 264 264 265 262
322 316 315 311 306 303 305 309 305 300 296 291 288 289 285 277 267 260 261 259 263 261
321 315 313 307 305 312 311 308 305 302 303 298 293 294 291 279 262 259 259 259 258 255
317 309 306 303 312 312 306 307 312 304 302 302 297 307 318 299 257 253 254 255 256 254
313 306 298 308 311 311 311 313 309 308 308 309 314 310 323 323 254 247 250 251 258 254